Weather History for Sisseton, SD

Change the Weather History Date:

Tuesday, July 3, 2012

  Actual Average Record
Temperature  
Mean Temperature 82 °F 70 °F  
Max Temperature 91 °F 82 °F 105 °F (1949)
Min Temperature 73 °F 59 °F 45 °F (1969)
Degree Days  
Heating Degree Days 0 1  
Month to date heating degree days 0 3  
Since 1 June heating degree days 27 65  
Since 1 July heating degree days 0 3  
Cooling Degree Days 17 6  
Month to date cooling degree days 48 17  
Year to date cooling degree days 267 134  
Since 1 June cooling degree days 209 111  
Growing Degree Days 32 (Base 50)    
Moisture  
Dew Point 72 °F    
Average Humidity 73    
Maximum Humidity 93    
Minimum Humidity 52    
Precipitation  
Precipitation 0.00 in 0.11 in 3.17 in (1905)
Month to date precipitation 0.00 0.33  
Year to date precipitation 10.90 11.05  
Sea Level Pressure  
Sea Level Pressure 29.66 in    
Wind  
Wind Speed 7 mph (NE)    
Max Wind Speed 15 mph    
Max Gust Speed 20 mph    
T = Trace of Precipitation, MM = Missing Value Source: NWS Daily Summary

Daily Weather History Graph

Daily Weather History Graph

Search for Another Location

Airport:

Trip Planner

Search our weather history database for the weather conditions in past years. The results will help you decide how hot, cold, wet, or windy it might be!

Date:

Astronomy

Jul. 03, 2012 Rise Set
Actual Time 5:43 AM CDT 9:20 PM CDT
Civil Twilight 5:06 AM CDT 9:58 PM CDT
Nautical Twilight 4:15 AM CDT 10:48 PM CDT
Astronomical Twilight 3:08 AM CDT 11:54 PM CDT
Moon 9:11 PM CDT (7/3) 5:40 AM CDT (7/3)
Length of Visible Light 16h 51m
Length of Day
15h 36m
Full, 100% of the Moon is Illuminated
Jul 3
Full
Jul 3
Full
Jul 10
Last Quarter
Jul 18
New
Jul 26
First Quarter

Hourly Weather History & Observations

Time (CDT) Temp. Heat Index Dew Point Humidity Pressure Visibility Wind Dir Wind Speed Gust Speed Precip Events Conditions
12:56 AM 80.1 °F 85.1 °F 75.0 °F 85% 29.63 in - NW 10.4 mph - N/A   Unknown
1:56 AM 78.1 °F - 73.9 °F 87% 29.63 in - NNW 8.1 mph - N/A   Unknown
2:56 AM 77.0 °F - 73.0 °F 88% 29.62 in - NNW 8.1 mph - N/A   Unknown
3:56 AM 75.9 °F - 72.0 °F 87% 29.65 in - NW 6.9 mph - N/A   Unknown
4:56 AM 73.9 °F - 72.0 °F 93% 29.65 in - NNW 5.8 mph - N/A   Unknown
5:56 AM 73.0 °F - 70.0 °F 90% 29.67 in - North 10.4 mph - N/A   Unknown
6:56 AM 73.9 °F - 70.0 °F 87% 29.69 in - NNW 10.4 mph - N/A   Unknown
7:56 AM 77.0 °F - 70.0 °F 79% 29.70 in - North 10.4 mph - N/A   Unknown
8:56 AM 78.1 °F - 70.0 °F 76% 29.70 in - NNE 15.0 mph - N/A   Unknown
9:56 AM 81.0 °F 84.4 °F 70.0 °F 69% 29.71 in - NNE 9.2 mph - N/A   Unknown
10:56 AM 81.0 °F 84.9 °F 71.1 °F 72% 29.71 in - NE 8.1 mph - N/A   Unknown
11:56 AM 84.9 °F 90.7 °F 72.0 °F 65% 29.70 in - NE 6.9 mph - N/A   Unknown
12:56 PM 86.0 °F 92.2 °F 72.0 °F 63% 29.70 in - NNE 4.6 mph - N/A   Unknown
1:56 PM 89.1 °F 96.0 °F 72.0 °F 57% 29.69 in - NE 4.6 mph - N/A   Unknown
2:56 PM 90.0 °F 96.9 °F 72.0 °F 55% 29.68 in - East 4.6 mph - N/A   Unknown
3:56 PM 90.0 °F 95.4 °F 70.0 °F 52% 29.67 in - East 4.6 mph - N/A   Unknown
4:56 PM 90.0 °F 97.9 °F 73.0 °F 57% 29.65 in - East 8.1 mph - N/A   Unknown
5:56 PM 89.1 °F 95.0 °F 71.1 °F 55% 29.64 in - ESE 4.6 mph - N/A   Unknown
6:56 PM 88.0 °F 93.8 °F 71.1 °F 57% 29.63 in - SE 9.2 mph - N/A   Unknown
7:56 PM 86.0 °F 92.2 °F 72.0 °F 63% 29.62 in - ESE 4.6 mph - N/A   Unknown
8:56 PM 82.9 °F 88.8 °F 73.0 °F 72% 29.62 in - ESE 5.8 mph - N/A   Unknown
9:56 PM 79.0 °F - 75.0 °F 88% 29.62 in - SE 5.8 mph - N/A   Unknown
10:56 PM 78.1 °F - 75.0 °F 90% 29.63 in - SSE 4.6 mph - N/A   Unknown
11:56 PM 77.0 °F - 73.9 °F 90% 29.63 in - SSW 4.6 mph - N/A   Unknown